This is the latest recevied weather packets stored in our database for station/object AC8JV. If no packets are shown the sender has not sent any weather packets the latest 10 day(s).
| Time | Temp. | Humidity | Pressure | Rain* | Wind** | Luminosity | Snow |
|---|---|---|---|---|---|---|---|
| 1777753816 | 10° C | 42% | 1018.2 hPa | 0 mm | - | - | - |
| 1777753221 | 10° C | 40% | 1018.2 hPa | 0 mm | - | - | - |
| 1777752601 | 10° C | 42% | 1018.4 hPa | 0 mm | - | - | - |
| 1777752001 | 10° C | 43% | 1018.5 hPa | 0 mm | - | - | - |
| 1777751412 | 10° C | 41% | 1018.6 hPa | 0 mm | - | - | - |
| 1777750800 | 10° C | 46% | 1018.6 hPa | 0 mm | - | - | - |
| 1777750240 | 9.44° C | 46% | 1018.8 hPa | 0 mm | - | - | - |
| 1777749606 | 9.44° C | 42% | 1018.8 hPa | 0 mm | - | - | - |
| 1777749001 | 8.89° C | 46% | 1018.8 hPa | 0 mm | - | - | - |
| 1777748401 | 8.89° C | 44% | 1019 hPa | 0 mm | - | - | - |
| 1777747803 | 9.44° C | 45% | 1019 hPa | 0 mm | - | - | - |
| 1777747206 | 9.44° C | 44% | 1019.2 hPa | 0 mm | - | - | - |
| 1777746601 | 9.44° C | 49% | 1019.1 hPa | 0 mm | - | - | - |
| 1777746012 | 9.44° C | 46% | 1019.2 hPa | 0 mm | - | - | - |
| 1777745400 | 10° C | 49% | 1019.2 hPa | 0 mm | - | - | - |
| 1777744808 | 9.44° C | 50% | 1019.2 hPa | 0 mm | - | - | - |
| 1777744208 | 8.89° C | 46% | 1019.2 hPa | 0 mm | - | - | - |
| 1777743615 | 8.89° C | 48% | 1019.3 hPa | 0 mm | - | - | - |
| 1777742999 | 8.89° C | 51% | 1019.3 hPa | 0 mm | - | - | - |
| 1777742401 | 8.89° C | 46% | 1019.4 hPa | 0 mm | - | - | - |
| 1777741802 | 8.89° C | 47% | 1019.5 hPa | 0 mm | - | - | - |
| 1777741200 | 8.89° C | 46% | 1019.5 hPa | 0 mm | - | - | - |
| 1777740655 | 8.89° C | 52% | 1019.6 hPa | 0 mm | - | - | - |
| 1777740003 | 8.33° C | 54% | 1019.7 hPa | 0 mm | - | - | - |
| 1777739460 | 7.78° C | 52% | 1019.6 hPa | 0 mm | - | - | - |
* Rain latest hour (hover to see other rain measurements)
** Current wind speed in m/s (hover to see current wind gust speed)